Location: Tyler Bend Campground
(35.9875°N, 92.7606°W)
Time: 10:22:48
(UTC-06:00)

CZ-2C R/B - Visible Passes

Search period start: 22 December 2014 00:00
Search period end: 01 January 2015 00:00
Orbit: 670 x 786 km, 98.1° (Epoch: 20 December)

Date Brightness Start Highest point End Pass type
(mag) Time Alt. Az. Time Alt. Az. Time Alt. Az.
22 Dec 5.5 06:37:59 10° ENE 06:40:55 15° E 06:43:50 10° SE visible
22 Dec 4.0 17:45:58 10° E 17:47:59 13° ENE 17:50:02 10° NE visible
22 Dec 2.7 19:20:56 10° S 19:25:36 63° W 19:30:28 10° NNW visible
23 Dec 2.7 18:33:40 10° SE 18:38:06 40° ENE 18:42:40 10° N visible
23 Dec 4.9 20:13:16 10° SW 20:16:31 18° W 20:19:51 10° NW visible
24 Dec 5.5 06:40:47 10° NE 06:43:59 16° E 06:47:10 10° SE visible
24 Dec 4.0 17:48:34 10° E 17:50:57 14° ENE 17:53:22 10° NE visible
24 Dec 2.8 19:23:57 10° S 19:28:37 59° W 19:33:29 10° NNW visible
25 Dec 2.6 18:36:34 10° SE 18:41:05 43° ENE 18:45:46 10° N visible
25 Dec 5.0 20:16:28 10° SW 20:19:33 17° W 20:22:43 10° NW visible
26 Dec 5.4 06:43:37 10° NE 06:47:03 18° E 06:50:26 10° SE visible
26 Dec 3.9 17:51:13 10° E 17:53:55 15° ENE 17:56:39 10° NNE visible
26 Dec 3.0 19:26:57 10° S 19:31:38 54° W 19:36:29 10° NNW visible
27 Dec 2.5 18:39:28 10° SE 18:44:04 47° ENE 18:48:50 10° N visible
27 Dec 5.1 20:19:40 10° SW 20:22:35 16° W 20:25:34 10° NW visible
28 Dec 5.4 06:46:28 10° NE 06:50:06 19° E 06:53:40 10° SE visible
28 Dec 3.8 17:53:54 10° ESE 17:56:52 16° ENE 17:59:54 10° NNE visible
28 Dec 3.2 19:29:58 10° S 19:34:38 50° W 19:39:29 10° NNW visible
29 Dec 2.5 18:42:22 10° SSE 18:47:03 51° ENE 18:51:54 10° N visible
29 Dec 5.2 20:22:55 10° SW 20:25:37 15° W 20:28:22 10° WNW visible
30 Dec 5.3 06:49:21 10° NE 06:53:08 20° E 06:56:52 10° SE visible
30 Dec 3.8 17:56:37 10° ESE 17:59:50 18° ENE 18:03:06 10° NNE visible
30 Dec 3.3 19:33:00 10° S 19:37:38 46° W 19:42:29 10° NNW visible
31 Dec 2.4 18:45:17 10° SSE 18:50:02 56° ENE 18:54:58 10° N visible
31 Dec 5.3 20:26:11 10° WSW 20:28:39 14° W 20:31:09 10° WNW visible
